Fort Leonard Wood, MO

8:25 AM CDT on October 23, 2019 (GMT -0500)
Waynesville Regional At Forney Field

Weather History for KTBN - May, 2019

Change the Weather History Date:

Monday, May 13, 2019

  Actual Average Record
Temperature  
Mean Temperature 54 °F -  
Max Temperature 65 °F 73 °F 89 °F (1998)
Min Temperature 42 °F 56 °F 42 °F (2013)
Degree Days  
Heating Degree Days 12    
Growing Degree Days 4 (Base 50)    
Moisture  
Dew Point 46 °F    
Average Humidity 89    
Maximum Humidity 100    
Minimum Humidity 44    
Precipitation  
Precipitation 0.00 in - - ()
Sea Level Pressure  
Sea Level Pressure 29.96 in    
Wind  
Wind Speed 1 mph (North)    
Max Wind Speed 7 mph    
Max Gust Speed -    
Visibility 5 miles    
Events Fog    
Averages and records for this station are not official NWS values.
T = Trace of Precipitation, MM = Missing Value Source: NWS Daily Summary

Daily Weather History Graph

Daily Weather History Graph

Search for Another Location

Airport or City:

Astronomy

May. 13, 2019 Rise Set
Actual Time 6:00 AM CDT 8:09 PM CDT
Civil Twilight 5:31 AM CDT 8:38 PM CDT
Nautical Twilight 4:55 AM CDT 9:14 PM CDT
Astronomical Twilight 4:17 AM CDT 9:53 PM CDT
Moon 2:30 PM CDT (5/13) 3:10 AM CDT (5/13)
Length of Visible Light 15h 07m
Length of Day
14h 08m
Waxing Gibbous, 69% of the Moon is Illuminated
May 13
Waxing Gibbous
May 18
Full
May 26
Last Quarter
Jun 3
New
Jun 10
First Quarter

Hourly Weather History & Observations

Time (CDT) Temp. Windchill Dew Point Humidity Pressure Visibility Wind Dir Wind Speed Gust Speed Precip Events Conditions
12:11 AM 46.4 °F - 46.4 °F 100% 29.90 in 2.0 mi Calm Calm - N/A   Clear
12:16 AM 48.2 °F - 46.4 °F 93% 29.90 in 2.0 mi Calm Calm - N/A   Clear
12:26 AM 46.4 °F - 44.6 °F 93% 29.90 in 1.4 mi Calm Calm - N/A   Clear
12:36 AM 46.4 °F - 44.6 °F 93% 29.90 in 2.0 mi Calm Calm - N/A   Clear
12:41 AM 46.4 °F - 44.6 °F 93% 29.90 in 1.1 mi Calm Calm - N/A   Clear
12:46 AM 44.6 °F - 42.8 °F 93% 29.90 in 0.9 mi Calm Calm - N/A   Clear
12:51 AM 46.4 °F - 44.6 °F 93% 29.90 in 1.6 mi Calm Calm - N/A   Clear
12:56 AM 46.0 °F - 45.3 °F 97% 29.90 in 2.8 mi Calm Calm - N/A   Clear
1:01 AM 44.6 °F - 44.6 °F 100% 29.90 in 3.0 mi Calm Calm - N/A   Clear
1:06 AM 44.6 °F - 42.8 °F 93% 29.90 in 2.2 mi Calm Calm - N/A   Clear
1:11 AM 44.6 °F - 42.8 °F 93% 29.90 in 1.1 mi Calm Calm - N/A   Clear
1:21 AM 46.4 °F - 44.6 °F 93% 29.90 in 4.0 mi Calm Calm - N/A   Clear
1:51 AM 44.6 °F - 42.8 °F 93% 29.90 in 2.0 mi Calm Calm - N/A   Clear
1:56 AM 43.2 °F - 42.1 °F 96% 29.90 in 0.9 mi Calm Calm - N/A   Clear
2:01 AM 42.8 °F - 42.8 °F 100% 29.90 in 1.1 mi Calm Calm - N/A   Clear
2:16 AM 44.6 °F - 44.6 °F 100% 29.90 in 0.6 mi Calm Calm - N/A   Clear
2:31 AM 46.4 °F - 44.6 °F 93% 29.91 in 0.9 mi Calm Calm - N/A Fog Fog
2:36 AM 46.4 °F - 44.6 °F 93% 29.91 in 1.0 mi Calm Calm - N/A Fog Fog
2:41 AM 46.4 °F - 46.4 °F 100% 29.91 in 0.9 mi Calm Calm - N/A Fog Fog
2:46 AM 46.4 °F - 46.4 °F 100% 29.91 in 0.8 mi Calm Calm - N/A Fog Fog
2:56 AM 45.7 °F - 45.0 °F 97% 29.91 in 1.0 mi Calm Calm - N/A   Mist
3:01 AM 46.4 °F - 44.6 °F 93% 29.91 in 1.4 mi Calm Calm - N/A   Overcast
3:11 AM 46.4 °F - 44.6 °F 93% 29.92 in 0.9 mi Calm Calm - N/A   Mist
3:56 AM 45.7 °F 44.4 °F 45.1 °F 98% 29.92 in 0.4 mi North 3.5 mph - N/A Fog Fog
4:56 AM 44.8 °F 43.3 °F 44.2 °F 98% 29.92 in 0.2 mi North 3.5 mph - N/A Fog Fog
5:56 AM 45.1 °F 43.7 °F 45.0 °F 99% 29.95 in 0.1 mi NE 3.5 mph - N/A Fog Fog
6:56 AM 45.0 °F - 44.8 °F 99% 29.99 in 0.2 mi Calm Calm - N/A Fog Fog
7:46 AM 46.4 °F 45.2 °F 46.4 °F 100% 29.99 in 0.5 mi NNE 3.5 mph - N/A Fog Fog
7:56 AM 46.4 °F 45.2 °F 46.2 °F 99% 30.00 in 0.9 mi NNE 3.5 mph - N/A Fog Fog
8:01 AM 46.4 °F - 46.4 °F 100% 30.00 in 1.0 mi Calm Calm - N/A Fog Fog
8:06 AM 46.4 °F - 46.4 °F 100% 30.00 in 1.4 mi Calm Calm - N/A   Overcast
8:11 AM 46.4 °F - 46.4 °F 100% 30.01 in 4.0 mi Calm Calm - N/A   Overcast
8:46 AM 48.2 °F - 48.2 °F 100% 30.01 in 10.0 mi Calm Calm - N/A   Overcast
8:56 AM 48.0 °F - 47.7 °F 99% 30.01 in 10.0 mi NE 4.6 mph - N/A   Overcast
9:01 AM 48.2 °F - 48.2 °F 100% 30.02 in 10.0 mi Calm Calm - N/A   Overcast
9:56 AM 49.5 °F - 49.1 °F 99% 30.04 in 10.0 mi Calm Calm - N/A   Overcast
10:06 AM 50.0 °F - 50.0 °F 100% 30.04 in 10.0 mi North 4.6 mph - N/A   Overcast
10:26 AM 51.8 °F - 51.8 °F 100% 30.04 in 10.0 mi Calm Calm - N/A   Scattered Clouds
10:31 AM 51.8 °F - 50.0 °F 94% 30.04 in 10.0 mi Calm Calm - N/A   Mostly Cloudy
10:46 AM 51.8 °F - 51.8 °F 100% 30.04 in 10.0 mi Calm Calm - N/A   Scattered Clouds
10:56 AM 53.4 °F - 53.1 °F 99% 30.03 in 10.0 mi WNW 3.5 mph - N/A   Mostly Cloudy
11:01 AM 53.6 °F - 53.6 °F 100% 30.04 in 10.0 mi NW 3.5 mph - N/A   Mostly Cloudy
11:11 AM 53.6 °F - 53.6 °F 100% 30.03 in 10.0 mi Calm Calm - N/A   Scattered Clouds
11:56 AM - - - N/A% - - North - - N/A   Unknown
12:45 PM 59.0 °F - 42.8 °F 55% 30.00 in 10.0 mi SSE 6.9 mph - N/A   Scattered Clouds
12:56 PM 60.1 °F - 45.3 °F 58% 30.01 in 10.0 mi NW 6.9 mph - N/A   Unknown
12:57 PM 60.1 °F - 45.3 °F 58% 30.01 in 10.0 mi NW 6.9 mph - N/A   Scattered Clouds
1:56 PM 62.6 °F - 43.7 °F 50% 30.00 in 10.0 mi South 3.5 mph - N/A   Unknown
2:56 PM 62.6 °F - 44.6 °F 52% 29.99 in 10.0 mi North 5.8 mph - N/A   Mostly Cloudy
3:56 PM 63.1 °F - 44.2 °F 50% 29.98 in 10.0 mi Calm Calm - N/A   Scattered Clouds
4:56 PM 65.7 °F - 45.0 °F 47% 29.97 in 10.0 mi Calm Calm - N/A   Mostly Cloudy
5:56 PM 65.8 °F - 43.3 °F 44% 29.97 in 10.0 mi Calm Calm - N/A   Partly Cloudy
6:56 PM 61.0 °F - 48.2 °F 63% 29.97 in 10.0 mi Calm Calm - N/A   Clear
7:56 PM 60.8 °F - 50.0 °F 68% 29.98 in 10.0 mi Calm Calm - N/A   Clear
8:56 PM 53.6 °F - 51.3 °F 92% 29.99 in 10.0 mi Calm Calm - N/A   Clear
9:56 PM 51.3 °F - 49.1 °F 92% 30.00 in 10.0 mi Calm Calm - N/A   Clear
10:56 PM 51.8 °F - 48.0 °F 87% 30.02 in 10.0 mi Calm Calm - N/A   Clear
11:56 PM 49.3 °F - 47.1 °F 92% 30.01 in 10.0 mi East 4.6 mph - N/A   Clear